Date,TemperatureHighF,TemperatureAvgF,TemperatureLowF,DewpointHighF,DewpointAvgF,DewpointLowF,HumidityHigh,HumidityAvg,HumidityLow,PressureMaxIn,PressureMinIn,WindSpeedMaxMPH,WindSpeedAvgMPH,GustSpeedMaxMPH,PrecipitationSumIn
2013-1-1,35,30,17,24,13,0,68,49,34,0.00,40.00,18,6,27,0.00
2013-1-2,27,17,7,13,3,-10,71,54,43,0.00,40.00,14,4,24,0.00
2013-1-3,24,12,2,5,-5,-10,73,47,24,0.00,40.00,9,3,16,0.00
2013-1-4,37,26,10,22,16,4,89,65,48,0.00,40.00,9,3,21,0.00
2013-1-5,40,32,20,21,17,13,80,54,35,0.00,40.00,14,3,22,0.00
2013-1-6,42,30,20,26,23,16,91,74,50,0.00,40.00,11,2,16,0.03
2013-1-7,36,29,18,28,19,11,90,67,38,0.00,40.00,9,2,20,0.00
2013-1-8,44,30,17,25,21,15,94,71,41,0.00,40.00,9,2,17,0.00
2013-1-9,44,33,20,33,25,19,95,74,48,0.00,40.00,11,2,27,0.00
2013-1-10,45,40,29,26,22,19,73,48,37,0.00,40.00,20,7,35,0.00
2013-1-11,40,33,24,36,27,21,98,78,58,0.00,40.00,5,1,7,0.10
2013-1-12,42,39,36,41,39,36,98,98,98,0.00,40.00,6,1,9,0.00
2013-1-13,50,45,39,49,44,39,98,98,98,0.00,40.00,6,2,10,0.00
2013-1-14,61,50,40,51,40,22,98,72,34,0.00,40.00,15,4,24,0.00
2013-1-15,41,36,30,26,22,21,75,58,45,0.00,40.00,5,1,11,0.00
2013-1-16,32,31,28,32,29,22,98,91,67,0.00,40.00,4,1,6,0.58
2013-1-17,42,33,27,33,24,3,98,72,39,0.00,40.00,10,3,19,0.00
2013-1-18,27,20,13,6,-3,-9,52,36,24,0.00,40.00,13,4,24,0.00
2013-1-19,46,34,18,29,17,3,73,49,35,0.00,40.00,12,4,25,0.00
2013-1-20,53,40,28,30,21,6,71,49,24,0.00,40.00,17,8,33,0.00
2013-1-21,28,24,19,20,6,-2,92,49,32,0.00,40.00,16,4,30,0.05
2013-1-22,23,19,11,20,7,-7,93,62,27,0.00,40.00,12,5,22,0.00
2013-1-23,14,9,3,0,-13,-18,63,37,22,0.00,40.00,16,5,29,0.00
2013-1-24,17,8,-1,-12,-15,-16,52,35,22,0.00,40.00,15,7,37,0.00
2013-1-25,22,14,6,5,-10,-15,60,32,21,0.00,40.00,18,6,32,0.00
2013-1-26,22,16,10,10,0,-13,84,52,24,0.00,40.00,14,4,26,0.00
2013-1-27,30,19,12,0,-4,-7,58,37,19,0.00,40.00,14,6,27,0.00
2013-1-28,30,23,17,23,8,-6,96,58,28,0.00,40.00,6,2,11,0.31
2013-1-29,35,29,23,31,26,22,97,88,74,0.00,40.00,4,1,9,0.00
2013-1-30,60,44,32,57,43,31,98,96,89,0.00,40.00,11,3,26,0.30
2013-1-31,59,41,29,57,24,11,98,53,33,0.00,40.00,24,12,45,0.01
2013-2-1,32,27,22,14,6,0,56,41,28,0.00,40.00,15,8,27,0.00
2013-2-2,29,23,15,8,3,0,57,41,30,0.00,40.00,8,3,16,0.00
2013-2-3,26,23,18,21,18,8,92,80,48,0.00,40.00,7,2,14,0.29
2013-2-4,29,23,19,19,7,0,87,52,29,0.00,40.00,16,6,30,0.00
2013-2-5,30,23,18,17,7,1,73,49,37,0.00,40.00,6,2,12,0.04
2013-2-6,38,29,22,25,17,0,93,64,35,0.00,40.00,12,3,20,0.11
2013-2-7,27,21,13,2,-4,-7,56,33,23,0.00,40.00,9,2,17,0.00
2013-2-8,23,19,16,19,14,-2,96,81,33,0.00,40.00,16,6,39,0.92
2013-2-9,20,17,14,18,10,-1,96,75,48,0.00,40.00,16,7,35,1.22
2013-2-10,40,22,10,11,0,-5,72,42,16,0.00,40.00,7,2,18,0.00
2013-2-11,36,26,11,35,22,4,98,85,65,0.00,40.00,4,1,7,0.14
2013-2-12,45,38,32,35,28,24,98,69,45,0.00,40.00,16,6,27,0.00
2013-2-13,42,34,27,25,22,20,76,61,41,0.00,40.00,9,2,15,0.00
2013-2-14,44,34,26,24,21,17,84,59,36,0.00,40.00,9,2,13,0.00
2013-2-15,52,36,21,32,27,19,94,71,42,0.00,40.00,9,2,19,0.00
2013-2-16,39,34,27,32,24,12,97,71,47,0.00,40.00,6,2,13,0.22
2013-2-17,29,21,15,15,7,-2,88,56,36,0.00,40.00,24,9,43,0.25
2013-2-18,30,21,13,-1,-3,-8,49,35,19,0.00,40.00,24,12,37,0.00
2013-2-19,45,34,20,40,19,-1,98,56,32,0.00,40.00,9,3,16,0.23
2013-2-20,40,32,26,39,19,9,98,59,37,0.00,40.00,16,8,27,0.00
2013-2-21,30,26,23,14,10,6,63,51,39,0.00,40.00,15,6,28,0.00
2013-2-22,40,31,23,24,18,14,74,58,37,0.00,40.00,9,2,15,0.00
2013-2-23,38,34,29,32,27,22,97,78,66,0.00,40.00,10,2,14,0.00
2013-2-24,35,33,30,35,32,29,98,98,98,0.00,40.00,7,4,16,0.52
2013-2-25,41,34,29,34,30,27,98,89,66,0.00,40.00,4,1,7,0.01
2013-2-26,42,34,28,36,29,25,98,82,59,0.00,40.00,7,1,11,0.00
2013-2-27,40,37,34,40,35,29,98,94,74,0.00,40.00,9,4,23,1.03
2013-2-28,48,38,33,36,34,32,98,84,57,0.00,40.00,5,2,12,0.00
2013-3-1,40,36,31,35,29,26,94,75,58,0.00,40.00,7,2,16,0.00
2013-3-2,42,36,30,27,25,23,76,63,51,0.00,40.00,9,3,14,0.00
2013-3-3,40,34,30,32,26,23,89,72,57,0.00,40.00,11,4,17,0.04
2013-3-4,38,33,30,26,22,19,80,63,47,0.00,40.00,17,8,28,0.00
2013-3-5,44,36,30,33,25,20,93,66,47,0.00,40.00,9,2,17,0.00
2013-3-6,39,35,32,36,32,27,98,88,65,0.00,40.00,14,6,27,0.21
2013-3-7,33,31,30,31,29,25,98,92,78,0.00,40.00,14,8,26,0.33
2013-3-8,42,33,29,37,27,18,98,81,40,0.00,40.00,10,5,21,1.62
2013-3-9,47,35,22,28,22,15,95,61,29,0.00,40.00,9,2,19,0.00
2013-3-10,45,33,20,31,26,19,97,78,51,0.00,40.00,7,2,12,0.00
2013-3-11,53,42,33,40,32,29,91,72,41,0.00,40.00,7,4,14,0.00
2013-3-12,55,48,40,53,47,39,98,94,82,0.00,40.00,12,5,19,0.45
2013-3-13,53,44,31,52,30,17,98,60,29,0.00,40.00,12,6,20,0.00
2013-3-14,35,31,22,23,13,3,73,49,34,0.00,40.00,16,7,28,0.00
2013-3-15,41,28,18,26,9,1,72,46,20,0.00,40.00,13,6,26,0.00
2013-3-16,38,32,26,26,11,4,71,43,25,0.00,40.00,11,4,24,0.00
2013-3-17,36,28,20,16,7,-1,76,44,22,0.00,40.00,13,4,27,0.00
2013-3-18,38,27,15,22,5,-4,73,39,19,0.00,40.00,9,3,13,0.07
2013-3-19,33,30,26,33,30,23,98,97,79,0.00,40.00,11,4,26,1.53
2013-3-20,38,30,24,25,21,16,98,69,43,0.00,40.00,16,5,24,0.00
2013-3-21,40,30,20,27,18,6,89,62,27,0.00,40.00,8,2,12,0.00
2013-3-22,41,33,27,27,17,12,92,53,31,0.00,40.00,14,4,22,0.00
2013-3-23,42,35,26,20,17,13,70,49,31,0.00,40.00,19,8,30,0.00
2013-3-24,46,39,32,27,21,18,71,50,34,0.00,40.00,11,4,23,0.00
2013-3-25,43,36,28,32,28,24,89,73,62,0.00,40.00,9,3,21,0.00
2013-3-26,51,41,34,26,20,15,69,45,24,0.00,40.00,11,4,19,0.00
2013-3-27,54,42,28,32,23,20,74,49,28,0.00,40.00,12,4,23,0.00
2013-3-28,49,42,36,35,31,26,93,66,41,0.00,40.00,7,2,14,0.03
2013-3-29,56,45,31,33,30,26,87,58,33,0.00,40.00,7,2,16,0.00
2013-3-30,56,45,34,32,22,11,77,44,16,0.00,40.00,12,3,19,0.00
2013-3-31,60,44,25,38,22,-100,83,50,19,0.00,40.00,12,3,26,0.01
2013-4-1,61,46,35,44,34,6,98,68,25,0.00,40.00,17,6,31,0.19
2013-4-2,39,34,29,13,8,5,46,34,23,0.00,40.00,17,9,34,0.00
2013-4-3,46,36,29,13,7,0,47,30,15,0.00,40.00,18,10,31,0.00
2013-4-4,56,42,30,20,12,5,49,30,15,0.00,40.00,11,6,22,0.00
2013-4-5,61,46,38,27,23,15,66,42,16,0.00,40.00,11,5,22,0.00
2013-4-6,45,36,29,21,7,-3,52,31,13,0.00,40.00,17,5,29,0.00
2013-4-7,58,41,24,37,23,12,74,51,22,0.00,40.00,13,5,26,0.00
2013-4-8,65,52,42,43,36,28,91,58,25,0.00,40.00,12,3,21,0.00
2013-4-9,69,55,45,48,42,37,91,63,36,0.00,40.00,14,4,22,0.03
2013-4-10,60,50,45,48,45,41,98,83,60,0.00,40.00,6,2,10,0.73
2013-4-11,52,46,41,48,38,22,98,75,36,0.00,40.00,7,2,14,0.01
2013-4-12,42,37,35,36,32,23,98,81,48,0.00,40.00,8,4,17,0.34
2013-4-13,54,42,34,38,35,33,98,77,47,0.00,40.00,7,3,17,0.01
2013-4-14,53,46,39,39,31,23,92,58,31,0.00,40.00,13,4,24,0.00
2013-4-15,58,44,30,36,31,26,91,62,30,0.00,40.00,13,2,17,0.00
2013-4-16,68,52,37,51,40,34,93,66,39,0.00,40.00,12,6,25,0.00
2013-4-17,65,57,44,52,33,24,80,43,21,0.00,40.00,14,5,21,0.00
2013-4-18,61,50,34,41,31,24,85,51,30,0.00,40.00,12,4,21,0.00
2013-4-19,76,64,52,62,56,41,98,76,50,0.00,40.00,15,7,35,0.00
2013-4-20,68,53,44,63,38,17,98,61,29,0.00,40.00,14,8,29,0.40
2013-4-21,53,42,31,28,19,13,73,41,20,0.00,40.00,13,4,26,0.00
2013-4-22,51,41,30,32,27,19,90,62,28,0.00,40.00,9,2,24,0.00
2013-4-23,41,38,35,40,36,27,98,90,72,0.00,40.00,9,4,19,0.00
2013-4-24,76,56,40,49,44,33,98,69,21,0.00,40.00,9,4,19,0.13
2013-4-25,64,55,43,52,34,22,93,48,20,0.00,40.00,15,6,26,0.09
2013-4-26,60,48,34,37,32,28,82,56,34,0.00,40.00,7,2,15,0.00
2013-4-27,65,50,35,40,34,29,93,58,29,0.00,40.00,11,2,17,0.00
2013-4-28,70,53,36,41,34,-100,91,54,23,0.00,40.00,12,3,21,0.03
2013-4-29,70,57,43,45,34,26,74,45,26,0.00,40.00,14,4,23,0.00
2013-4-30,70,57,44,35,27,18,69,35,16,0.00,40.00,12,2,17,0.00
2013-5-1,73,55,37,38,31,25,86,46,21,0.00,40.00,13,2,19,0.00
2013-5-2,80,54,39,44,38,34,86,59,20,0.00,40.00,10,2,22,0.00
2013-5-3,61,50,42,43,39,36,85,66,46,0.00,40.00,9,3,17,0.00
2013-5-4,61,49,38,45,36,26,95,65,27,0.00,40.00,8,2,16,0.00
2013-5-5,64,48,33,42,36,31,95,66,37,0.00,40.00,10,3,21,0.00
2013-5-6,73,51,35,48,40,33,97,71,25,0.00,40.00,8,2,15,0.00
2013-5-7,78,62,41,57,48,40,97,67,29,0.00,40.00,11,3,18,0.00
2013-5-8,74,63,52,62,57,51,97,82,52,0.00,40.00,19,4,29,0.01
2013-5-9,67,59,55,63,58,55,98,96,78,0.00,40.00,4,1,9,0.49
2013-5-10,79,64,55,61,54,-100,98,77,40,0.00,40.00,12,2,16,0.00
2013-5-11,71,64,59,62,59,54,98,83,68,0.00,40.00,9,4,21,0.17
2013-5-12,72,60,49,62,49,-100,98,71,30,0.00,40.00,16,4,24,0.13
2013-5-13,58,49,41,31,27,23,67,43,28,0.00,40.00,12,5,22,0.00
2013-5-14,59,49,37,33,28,23,80,48,25,0.00,40.00,10,3,21,0.00
2013-5-15,66,50,32,51,36,27,92,64,24,0.00,40.00,11,4,19,0.00
2013-5-16,80,60,44,53,21,-100,98,48,17,0.00,40.00,19,6,37,0.00
2013-5-17,70,59,49,42,34,-100,74,47,25,0.00,40.00,12,4,24,0.00
2013-5-18,74,58,41,49,41,32,93,60,23,0.00,40.00,10,2,21,0.00
2013-5-19,71,56,50,55,50,48,98,82,46,0.00,40.00,6,1,12,0.42
2013-5-20,81,67,55,63,59,55,98,79,49,0.00,40.00,6,2,14,0.06
2013-5-21,71,58,50,63,56,49,98,91,76,0.00,40.00,7,2,19,0.00
2013-5-22,62,54,50,57,52,49,98,93,83,0.00,40.00,7,2,15,2.00
2013-5-23,77,63,53,71,60,52,98,91,70,0.00,40.00,9,3,21,0.13
2013-5-24,73,63,49,67,60,47,98,89,68,0.00,40.00,8,3,20,0.81
2013-5-25,51,47,41,51,46,36,98,95,81,0.00,40.00,9,4,22,0.35
2013-5-26,57,47,39,41,37,35,92,70,47,0.00,40.00,13,6,27,0.18
2013-5-27,71,56,37,43,37,30,95,55,22,0.00,40.00,11,3,19,0.00
2013-5-28,72,58,41,50,42,35,96,62,26,0.00,40.00,8,2,14,0.00
2013-5-29,67,61,53,63,59,50,98,93,82,0.00,40.00,7,1,11,0.49
2013-5-30,90,74,60,67,63,59,98,72,37,0.00,40.00,10,3,16,0.00
2013-5-31,95,80,62,70,64,60,98,64,31,0.00,40.00,7,2,14,0.00
2013-6-1,94,81,66,72,64,55,93,61,27,0.00,40.00,9,3,16,0.11
2013-6-2,91,79,70,71,65,-100,97,68,34,0.00,40.00,13,4,27,0.06
2013-6-3,79,69,59,68,62,45,98,80,42,0.00,40.00,7,3,17,0.27
2013-6-4,71,61,52,48,42,39,70,50,33,0.00,40.00,10,4,21,0.00
2013-6-5,74,62,47,51,45,40,91,58,32,0.00,40.00,9,2,15,0.00
2013-6-6,73,63,52,56,51,48,91,65,41,0.00,40.00,7,2,16,0.01
2013-6-7,60,55,52,56,53,51,98,95,75,0.00,40.00,7,2,14,1.07
2013-6-8,78,63,52,62,56,52,98,81,54,0.00,40.00,11,4,21,1.66
2013-6-9,80,67,54,60,54,50,98,67,37,0.00,40.00,10,3,20,0.00
2013-6-10,70,62,54,58,56,53,97,81,59,0.00,40.00,6,1,11,0.20
2013-6-11,61,57,54,57,56,54,98,94,81,0.00,40.00,5,2,13,0.19
2013-6-12,69,62,56,58,54,51,98,77,56,0.00,40.00,11,4,26,0.00
2013-6-13,69,58,51,58,54,49,97,86,55,0.00,40.00,4,1,10,0.42
2013-6-14,76,61,53,58,54,49,98,79,39,0.00,40.00,6,2,14,0.59
2013-6-15,79,67,56,53,46,39,79,51,24,0.00,40.00,9,3,17,0.00
2013-6-16,77,66,51,59,53,47,95,66,34,0.00,40.00,9,2,17,0.00
2013-6-17,85,69,56,63,59,54,96,74,38,0.00,40.00,7,3,17,0.13
2013-6-18,72,62,57,63,59,56,98,92,63,0.00,40.00,7,1,14,0.31
2013-6-19,76,63,54,58,51,41,98,70,29,0.00,40.00,5,2,12,0.01
2013-6-22,84,81,76,64,61,59,62,50,43,0.00,40.00,7,5,14,0.00
2013-6-23,90,79,65,71,65,59,79,63,49,0.00,40.00,7,3,15,0.00
2013-6-24,95,84,72,71,68,63,94,62,34,0.00,40.00,7,4,17,0.07
2013-6-25,91,78,69,69,67,65,96,73,43,0.00,40.00,5,2,11,0.00
2013-6-26,81,73,69,72,70,67,98,90,66,0.00,40.00,2,1,10,0.02
2013-6-27,68,66,62,66,64,61,98,94,90,0.00,40.00,3,1,6,0.03
2013-6-28,82,67,57,74,65,56,98,92,70,0.00,40.00,10,2,18,0.37
2013-6-29,82,75,71,70,69,66,95,81,59,0.00,40.00,7,4,16,0.00
2013-6-30,87,78,69,69,68,67,98,74,53,0.00,40.00,4,3,10,0.00
2013-7-1,80,74,72,73,71,70,98,91,76,0.00,40.00,9,2,17,2.83
2013-7-2,81,71,60,75,69,59,98,94,78,0.00,40.00,6,2,9,0.51
2013-7-3,90,74,60,72,67,59,98,79,54,0.00,40.00,6,3,12,0.00
2013-7-4,92,82,72,73,72,71,96,75,51,0.00,40.00,5,2,12,0.00
2013-7-5,94,87,76,74,72,71,90,63,49,0.00,40.00,7,3,12,0.00
2013-7-6,89,82,77,73,71,62,87,71,51,0.00,40.00,8,3,17,0.00
2013-7-7,91,81,65,72,67,63,93,63,48,0.00,40.00,6,2,10,0.00
2013-7-8,82,73,69,73,60,-100,97,80,69,0.00,40.00,3,2,13,0.06
2013-7-9,73,68,65,67,65,64,97,89,80,0.00,40.00,3,1,7,0.00
2013-7-10,83,68,65,76,60,-100,98,86,71,0.00,40.00,9,2,14,0.00
2013-7-11,83,76,72,74,72,70,98,87,66,0.00,40.00,3,2,7,0.00
2013-7-12,78,72,66,63,58,54,81,63,44,0.00,40.00,4,2,14,0.00
2013-7-13,80,70,64,69,63,59,90,76,64,0.00,40.00,3,1,6,0.00
2013-7-14,90,78,69,74,71,67,98,81,49,0.00,40.00,4,2,7,0.00
2013-7-15,92,81,70,72,70,69,98,71,47,0.00,40.00,6,2,9,0.00
2013-7-16,91,79,70,72,68,65,86,71,45,0.00,40.00,4,1,11,0.00
2013-7-17,94,88,72,75,71,67,93,59,44,0.00,40.00,4,3,11,0.00
2013-7-18,89,80,74,74,71,67,88,77,54,0.00,40.00,7,2,12,0.00
2013-7-19,96,83,71,76,72,70,96,73,43,0.00,40.00,7,2,17,0.00
2013-7-20,91,82,77,74,69,65,76,64,47,0.00,40.00,7,3,15,0.00
2013-7-21,80,72,66,65,64,60,93,76,54,0.00,40.00,1,0,5,0.00
2013-7-22,81,74,67,68,67,65,96,79,64,0.00,40.00,4,1,10,0.00
2013-7-23,78,71,68,76,69,65,98,94,87,0.00,40.00,4,1,12,0.67
2013-7-24,85,73,64,73,65,51,98,78,51,0.00,40.00,7,2,16,0.00
2013-7-25,63,60,58,59,53,46,98,76,56,0.00,40.00,6,2,14,0.38
2013-7-26,71,66,60,68,63,59,98,92,79,0.00,40.00,4,2,12,0.24
2013-7-27,83,70,60,65,60,58,95,73,44,0.00,40.00,5,2,10,0.00
2013-7-28,77,70,64,69,66,62,96,87,75,0.00,40.00,3,1,7,0.01
2013-7-29,81,71,66,71,68,65,98,90,64,0.00,40.00,5,1,11,0.00
2013-8-4,78,66,56,65,57,55,96,73,44,0.00,40.00,12,2,22,0.00
2013-8-5,76,64,54,53,46,36,92,57,23,0.00,40.00,10,3,21,0.00
2013-8-6,79,63,48,54,50,46,93,65,34,0.00,40.00,4,1,9,0.00
2013-8-7,80,66,53,59,54,49,95,69,33,0.00,40.00,9,2,15,0.00
2013-8-8,82,73,63,70,66,55,91,79,64,0.00,40.00,7,3,15,0.00
2013-8-9,75,72,71,74,71,69,98,95,88,0.00,40.00,8,4,16,1.00
2013-8-10,83,74,62,71,61,49,98,69,31,0.00,40.00,9,3,17,0.00
2013-8-15,-200,0,200,-100,-100,-100,54,13,35,0.00,40.00,7,4,14,0.00
2013-8-16,-200,0,200,-100,-100,-100,5,2,5,0.00,40.00,2,2,7,0.00
2013-8-18,-200,0,200,-100,-100,-100,0,0,100,0.00,40.00,0,0,2,0.00
2013-8-19,-200,0,200,-100,-100,-100,5,4,5,0.00,40.00,4,2,10,0.00
2013-8-20,-200,0,200,-100,-100,-100,5,5,5,0.00,40.00,2,2,7,0.00
2013-8-21,83,83,83,-100,-100,-100,0,0,100,0.00,40.00,1,1,4,0.00
2013-11-16,-200,0,200,-100,-100,-100,0,0,100,0.00,40.00,0,0,2,0.00
2013-11-17,49,49,49,41,41,41,73,73,73,0.00,40.00,0,0,2,0.00